Weather History for Newport, VT

Change the Weather History Date:

Saturday, January 19, 2013

  Actual Average Record
Temperature  
Mean Temperature 22 °F -  
Max Temperature 33 °F 23 °F 52 °F (1973)
Min Temperature 11 °F 1 °F -30 °F (1976)
Degree Days  
Heating Degree Days 43    
Moisture  
Dew Point 16 °F    
Average Humidity 73    
Maximum Humidity 85    
Minimum Humidity 51    
Precipitation  
Precipitation 0.00 in - - ()
Sea Level Pressure  
Sea Level Pressure 29.93 in    
Wind  
Wind Speed 6 mph (South)    
Max Wind Speed 10 mph    
Max Gust Speed 16 mph    
Visibility 7 miles    
Events Snow    
Averages and records for this station are not official NWS values.
T = Trace of Precipitation, MM = Missing Value Source: NWS Daily Summary

Daily Weather History Graph

Daily Weather History Graph

Search for Another Location

Airport:

Trip Planner

Search our weather history database for the weather conditions in past years. The results will help you decide how hot, cold, wet, or windy it might be!

Date:

Astronomy

Jan. 19, 2013 Rise Set
Actual Time 7:20 AM EST 4:39 PM EST
Civil Twilight 6:48 AM EST 5:11 PM EST
Nautical Twilight 6:12 AM EST 5:47 PM EST
Astronomical Twilight 5:37 AM EST 6:22 PM EST
Moon 11:07 AM EST (1/19) 12:47 AM EST (1/19)
Length of Visible Light 10h 23m
Length of Day
9h 18m
First Quarter, 57% of the Moon is Illuminated
Jan 19
First Quarter
Jan 26
Full
Feb 3
Last Quarter
Feb 10
New
Feb 17
First Quarter

Hourly Weather History & Observations

Time (EST) Temp. Windchill Dew Point Humidity Pressure Visibility Wind Dir Wind Speed Gust Speed Precip Events Conditions
12:15 AM 11.3 °F 3.3 °F -3.8 °F 51% 30.17 in 10.0 mi South 4.6 mph - N/A   Mostly Cloudy
12:35 AM 12.0 °F 4.1 °F -2.6 °F 52% 30.17 in 10.0 mi South 4.6 mph - N/A   Overcast
12:55 AM 11.8 °F 3.9 °F 2.5 °F 66% 30.16 in 2.5 mi South 4.6 mph - N/A Snow Light Snow
1:15 AM 11.5 °F 2.1 °F 5.2 °F 76% 30.15 in 2.0 mi South 5.8 mph - N/A Snow Light Snow
1:35 AM 12.2 °F 1.7 °F 7.2 °F 80% 30.13 in 2.0 mi South 6.9 mph - N/A Snow Light Snow
1:55 AM 13.1 °F 4.0 °F 7.7 °F 79% 30.13 in 2.5 mi South 5.8 mph - N/A Snow Light Snow
2:15 AM 13.1 °F 2.8 °F 8.1 °F 80% 30.12 in 2.0 mi South 6.9 mph - N/A Snow Light Snow
2:35 AM 13.1 °F 2.8 °F 7.9 °F 80% 30.11 in 2.0 mi South 6.9 mph - N/A Snow Light Snow
2:55 AM 13.3 °F 4.2 °F 8.2 °F 80% 30.10 in 2.5 mi South 5.8 mph - N/A Snow Light Snow
3:15 AM 13.6 °F 3.5 °F 8.6 °F 80% 30.08 in 2.5 mi South 6.9 mph - N/A Snow Light Snow
3:35 AM 13.8 °F 3.7 °F 8.8 °F 80% 30.07 in 1.5 mi South 6.9 mph - N/A Snow Light Snow
3:55 AM 14.0 °F 2.0 °F 9.5 °F 82% 30.06 in 1.5 mi South 9.2 mph 16.1 mph N/A Snow Light Snow
4:15 AM 14.0 °F 2.0 °F 9.7 °F 83% 30.05 in 1.2 mi South 9.2 mph - N/A Snow Light Snow
4:35 AM 14.4 °F 4.3 °F 10.2 °F 84% 30.03 in 1.0 mi South 6.9 mph - N/A Snow Snow
4:55 AM 14.5 °F 2.7 °F 10.4 °F 84% 30.02 in 1.0 mi South 9.2 mph - N/A Snow Snow
5:15 AM 14.9 °F 3.1 °F 10.8 °F 84% 30.01 in 1.8 mi South 9.2 mph - N/A Snow Light Snow
5:35 AM 15.3 °F 3.5 °F 10.9 °F 83% 30.01 in 1.8 mi South 9.2 mph - N/A Snow Light Snow
5:55 AM 15.3 °F 4.4 °F 11.1 °F 84% 30.00 in 1.8 mi South 8.1 mph - N/A Snow Light Snow
6:15 AM 15.6 °F 4.9 °F 11.3 °F 83% 30.00 in 1.5 mi South 8.1 mph - N/A Snow Light Snow
6:35 AM 15.8 °F 3.4 °F 11.8 °F 84% 29.99 in 1.5 mi South 10.4 mph 16.1 mph N/A Snow Light Snow
6:55 AM 16.5 °F 6.0 °F 12.2 °F 83% 29.98 in 1.5 mi South 8.1 mph - N/A Snow Light Snow
8:15 AM 18.5 °F 8.4 °F 14.0 °F 83% 29.97 in 1.5 mi South 8.1 mph - N/A Snow Light Snow
8:55 AM 19.4 °F 8.6 °F 15.4 °F 85% 29.97 in 1.5 mi South 9.2 mph - N/A Snow Light Snow
9:35 AM 20.7 °F 11.0 °F 16.2 °F 83% 29.97 in 1.5 mi South 8.1 mph - N/A Snow Light Snow
10:55 AM 23.0 °F 15.8 °F 16.2 °F 75% 29.93 in 10.0 mi South 5.8 mph - N/A   Overcast
11:15 AM 23.0 °F 13.9 °F 16.0 °F 74% 29.91 in 10.0 mi South 8.1 mph - N/A   Overcast
11:35 AM 23.0 °F 13.9 °F 16.0 °F 74% 29.90 in 7.0 mi South 8.1 mph - N/A Snow Light Snow
12:15 PM 24.3 °F 18.4 °F 16.5 °F 72% 29.89 in 7.0 mi South 4.6 mph - N/A Snow Light Snow
12:35 PM 24.8 °F 17.9 °F 16.3 °F 70% 29.88 in 7.0 mi South 5.8 mph - N/A Snow Light Snow
12:55 PM 24.6 °F 16.7 °F 16.3 °F 71% 29.88 in 10.0 mi South 6.9 mph - N/A Snow Light Snow
1:15 PM 25.2 °F 18.3 °F 16.5 °F 70% 29.88 in 10.0 mi South 5.8 mph - N/A   Overcast
1:35 PM 25.5 °F 17.8 °F 17.1 °F 70% 29.87 in 10.0 mi South 6.9 mph - N/A   Overcast
1:55 PM 26.2 °F 19.6 °F 17.6 °F 70% 29.87 in 10.0 mi South 5.8 mph - N/A Snow Light Snow
2:15 PM 26.6 °F 19.1 °F 18.1 °F 70% 29.87 in 10.0 mi SSW 6.9 mph - N/A Snow Light Snow
2:35 PM 27.5 °F 19.3 °F 18.7 °F 69% 29.86 in 10.0 mi South 8.1 mph - N/A   Overcast
2:55 PM 27.9 °F 20.6 °F 18.5 °F 68% 29.87 in 10.0 mi South 6.9 mph - N/A   Overcast
3:15 PM 28.0 °F 20.8 °F 19.0 °F 69% 29.87 in 10.0 mi South 6.9 mph - N/A   Overcast
3:35 PM 28.2 °F 22.0 °F 19.4 °F 70% 29.87 in 10.0 mi South 5.8 mph - N/A   Overcast
3:55 PM 28.4 °F 21.2 °F 19.4 °F 69% 29.87 in 10.0 mi South 6.9 mph - N/A   Overcast
4:15 PM 28.9 °F 23.9 °F 20.3 °F 70% 29.87 in 10.0 mi South 4.6 mph - N/A   Overcast
4:35 PM 29.1 °F 24.1 °F 20.7 °F 71% 29.86 in 10.0 mi South 4.6 mph - N/A   Overcast
4:55 PM 29.8 °F 24.9 °F 20.7 °F 69% 29.86 in 10.0 mi South 4.6 mph - N/A   Overcast
5:15 PM 30.2 °F 25.4 °F 20.8 °F 68% 29.86 in 10.0 mi South 4.6 mph - N/A   Overcast
5:35 PM 30.7 °F 26.0 °F 20.7 °F 66% 29.86 in 10.0 mi South 4.6 mph - N/A   Overcast
5:55 PM 31.1 °F 23.7 °F 21.0 °F 66% 29.86 in 10.0 mi SSE 8.1 mph - N/A   Overcast
6:15 PM 31.8 °F 26.2 °F 20.8 °F 64% 29.86 in 10.0 mi South 5.8 mph - N/A   Overcast
6:35 PM 31.6 °F 25.1 °F 21.2 °F 65% 29.85 in 10.0 mi South 6.9 mph - N/A   Overcast
6:55 PM 31.6 °F 27.0 °F 21.2 °F 65% 29.85 in 10.0 mi South 4.6 mph - N/A   Overcast
7:15 PM 32.0 °F 26.4 °F 21.2 °F 64% 29.85 in 10.0 mi South 5.8 mph - N/A   Overcast
7:35 PM 32.0 °F 26.4 °F 21.7 °F 66% 29.85 in 10.0 mi South 5.8 mph - N/A   Overcast
7:55 PM 32.0 °F 26.4 °F 21.9 °F 66% 29.85 in 10.0 mi South 5.8 mph - N/A   Overcast
8:15 PM 31.6 °F 27.0 °F 22.8 °F 70% 29.84 in 10.0 mi SSW 4.6 mph - N/A   Overcast
8:35 PM 32.0 °F 27.5 °F 22.5 °F 68% 29.83 in 10.0 mi South 4.6 mph - N/A   Overcast
8:55 PM 32.0 °F 27.5 °F 22.1 °F 67% 29.82 in 10.0 mi SSW 4.6 mph - N/A   Overcast
9:15 PM 32.4 °F 27.9 °F 22.1 °F 66% 29.81 in 10.0 mi South 4.6 mph - N/A   Overcast
9:55 PM 32.0 °F - 22.3 °F 67% 29.78 in 10.0 mi Calm Calm - N/A   Overcast
10:15 PM 31.3 °F - 23.4 °F 72% 29.77 in 10.0 mi Calm Calm - N/A   Overcast
10:35 PM 30.2 °F 25.4 °F 23.5 °F 76% 29.75 in 10.0 mi SSW 4.6 mph - N/A   Overcast
10:55 PM 32.7 °F 26.4 °F 22.1 °F 65% 29.75 in 10.0 mi SSE 6.9 mph - N/A   Overcast
11:15 PM 33.1 °F 27.7 °F 22.5 °F 65% 29.74 in 10.0 mi South 5.8 mph - N/A   Overcast
11:35 PM 33.1 °F 30.0 °F 22.5 °F 65% 29.72 in 10.0 mi SSE 3.5 mph - N/A   Overcast
11:55 PM 32.7 °F 27.3 °F 23.9 °F 70% 29.72 in 4.0 mi South 5.8 mph - N/A Snow Light Snow